STARLINK-4035 (52690 NORAD) Tracking and Keplerian Element Data

This shows tracking and keplerian element data for the satellite.

Feedback or suggestion? Click here.




ElementValue
Catalog52690
NameSTARLINK-4035
Epoch Orbit894
Epoch Day193.25001157
Epoch Year2022
RAAN27.1986
Inclination53.2175
Eccentricity0.0001689
Argument of Perigee41.0305
Mean Anonmoly151.2733
Mean Motion15.53095681
Decay Rate-0.01063124
L11 52690U 22053AL 22193.25001157 -.01063124 00000+0 -18379-1 0 9999
L22 52690 53.2175 27.1986 0001689 41.0305 151.2733 15.53095681 8943

Live tracking and technical data element details for STARLINK-4035 (NORAD 52690). STARLINK-4035 can be tracked NOW for your location showing map with azimuth and elevation plus other details from your city location.

Track the satellite on the map from your city or location and see movement details for azimuth, elevation, latitude, longitude, range, height, and movement on the map or in text.







IsCatalogInMostPopularTable: catalog: 52690, numindb: 8
Update: records affected: 1



GetName: 52690 STARLINK-4035

Hit Count: updated at: Sun, 14 Aug 2022 00:47:50 GMT